(356) Liguria
ephemeris date magn radius delta ra dec elong phase
Today23 Jun 202614.02.875 AU2.942 AU11h10m+03°17'76.2°20.1°
Opposition21 May 202713.23.390 AU2.390 AU15h40m-30°30'169.4°3.2°
(356) Liguria - 2026-06-23
astro.vanbuitenen.nl


 
-1 year
-1 month
-1 day
Now
+1 day
+1 month
+1 year

The interactive orbit chart above shows the body's path through the solar system and its position at the given date. Green and blue lines are shown perpendicular to the ecliptic plane: Green if the path is above the ecliptic plane, blue if it is below. (Left-click and drag to rotate the view; Right-click and drag to move the view; Use scroll wheel to zoom in our out.)

The orbital elements of Liguria are:

            e (Eccentricity)                : 0.2420203
            a (Semimajor axis)              : 2.7537605
            i (Inclination)                 : 8.20731
            Ω (Longitude of ascending node) : 354.44459
            ω (Argument of perihelion)      : 79.27113
            M (Mean anomaly)                : 83.78900
            Epoch                           : 2026 Jun 09

            L (Longitude of perihelion)     : 73.60731
            B (Latitude of perihelion)      : 8.06288
            P (Orbital period in years)     : 4.57            
        

The light curve chart below shows the estimated development of the minor planet's magnitude.


The all-sky chart below shows the path of the minor planet over the same period as the light curve. The current position is marked yellow.





The following chart shows the path of the minor planet in the next few days. The field of view is optimized for (~10x50) binoculars and finderscopes.




Ephemerides:
Date       Time       RA (2000)    DEC (2000)    delta   radius  elong  phase   PA    magn
2026-06-23 00:00 UT   11 10 50.6   +03 17 28     2.942    2.875   76.2   20.1   113   14.0 
2026-06-23 00:45 UT   11 10 52.4   +03 17 15     2.942    2.875   76.2   20.1   113   14.0 
2026-06-24 00:00 UT   11 11 48.4   +03 10 12     2.957    2.877   75.5   20.0   113   14.0 
2026-06-25 00:00 UT   11 12 46.8   +03 02 53     2.973    2.879   74.8   19.9   113   14.0 
2026-06-26 00:00 UT   11 13 45.6   +02 55 31     2.988    2.882   74.2   19.8   113   14.0 
2026-06-27 00:00 UT   11 14 45.0   +02 48 06     3.003    2.884   73.5   19.8   114   14.0 
2026-06-28 00:00 UT   11 15 44.8   +02 40 39     3.018    2.886   72.8   19.7   114   14.1 
2026-06-29 00:00 UT   11 16 45.1   +02 33 09     3.034    2.889   72.1   19.6   114   14.1 
2026-06-30 00:00 UT   11 17 45.9   +02 25 35     3.049    2.891   71.5   19.5   114   14.1 
2026-07-01 00:00 UT   11 18 47.1   +02 17 60     3.064    2.893   70.8   19.4   114   14.1 
2026-07-02 00:00 UT   11 19 48.8   +02 10 21     3.079    2.896   70.1   19.3   114   14.1 
2026-07-03 00:00 UT   11 20 50.9   +02 02 40     3.094    2.898   69.5   19.2   114   14.1 
2026-07-04 00:00 UT   11 21 53.4   +01 54 57     3.109    2.900   68.8   19.1   114   14.1 
2026-07-05 00:00 UT   11 22 56.3   +01 47 10     3.123    2.903   68.2   19.0   114   14.1 
2026-07-06 00:00 UT   11 23 59.7   +01 39 22     3.138    2.905   67.5   18.9   114   14.1 
2026-07-07 00:00 UT   11 25 03.5   +01 31 31     3.153    2.907   66.8   18.8   114   14.1 
2026-07-08 00:00 UT   11 26 07.7   +01 23 37     3.168    2.910   66.2   18.6   114   14.1 
2026-07-09 00:00 UT   11 27 12.2   +01 15 41     3.182    2.912   65.5   18.5   114   14.2 
2026-07-10 00:00 UT   11 28 17.2   +01 07 43     3.197    2.914   64.9   18.4   114   14.2 
2026-07-11 00:00 UT   11 29 22.5   +00 59 42     3.211    2.917   64.2   18.3   114   14.2 
2026-07-12 00:00 UT   11 30 28.2   +00 51 39     3.226    2.919   63.6   18.2   114   14.2 
2026-07-13 00:00 UT   11 31 34.3   +00 43 34     3.240    2.921   62.9   18.1   114   14.2 
2026-07-14 00:00 UT   11 32 40.8   +00 35 26     3.254    2.923   62.3   17.9   114   14.2 
2026-07-15 00:00 UT   11 33 47.6   +00 27 16     3.268    2.926   61.6   17.8   114   14.2 
2026-07-16 00:00 UT   11 34 54.7   +00 19 04     3.283    2.928   61.0   17.7   115   14.2 
2026-07-17 00:00 UT   11 36 02.2   +00 10 50     3.297    2.930   60.4   17.5   115   14.2 
2026-07-18 00:00 UT   11 37 10.0   +00 02 34     3.311    2.933   59.7   17.4   115   14.2 
2026-07-19 00:00 UT   11 38 18.2   +00 05 44     3.324    2.935   59.1   17.3   115   14.2 
2026-07-20 00:00 UT   11 39 26.6   +00 14 03     3.338    2.937   58.4   17.1   115   14.2 
2026-07-21 00:00 UT   11 40 35.4   +00 22 25     3.352    2.939   57.8   17.0   115   14.2 


    Terminology:
            
    delta:  distance between minor planet and earth in AU
    radius: distance between minor planet and sun in AU
    magn:   magnitude (brightness) estimate    
    ra:     right ascension in hours (24h = 360deg)
    dec:    declination in degrees
    elong:  elongation in degrees (angle sun-earth-minor planet)    
    phase:  phase angle in degrees (angle sun-minor planet-earth)        
    AU:     Astronomical Unit (mean distance between earth and sun: 149597870.7 km
    

Orbital elements provided by the MPC (Minor Planet Center).
Calculations by a modified version of AAPlus, a C# implementation of the AA+ project by PJ Naughter from the algorithms presented in the book "Astronomical Algorithms" by Jean Meeus.
NGC2000 dso catalog and star labels from VizieR as provided by the Strasbourg astronomical Data Center.
Tycho2 catalog from the ESO archive.